Other Surface Observations
Issued by NWS

Current Version | Previous Version | Text Only | Print | Product List | Glossary On
Versions: 1 2 3 4 5 6 7 8 9 10 11 12 13 14 15 16 17 18 19 20 21 22 23 24 25 26 27 28 29 30 31 32 33 34 35 36 37 38 39 40 41 42 43 44 45 46 47 48 49 50
399
SXUS52 KTAE 120918
OSOTAE
OSOTAE
North Florida/South Alabama/Southwest Georgia Weather Roundup
National Weather Service Tallahassee Florida
400 AM EST FRI FEB 12 2016

Note: "fair" indicates few or no clouds below 12,000 feet with no
significant weather and/or obstructions to visibility.

!FLZ017-115-028-034-025-121000
...North Florida...

CITY           SKY/WX    TMP DP  RH WIND       PRES   REMARKS
TALLAHASSEE    MOCLDY    46  42  86 CALM      30.17S
APALACHICOLA   CLEAR     59  58  96 W10       30.18F
PERRY          MOCLDY    60  56  84 SW9       30.19F
CROSS CITY       N/A     55  53  93 SW5       30.20F
JACKSONVILLE   PTCLDY    47  47 100 S3        30.19F
$$

!FLZ112-006-005-002-011-121000
...Florida Panhandle...

CITY           SKY/WX    TMP DP  RH WIND       PRES   REMARKS
MARIANNA       CLEAR     59  57  93 SW7       30.14S
BONIFAY        FAIR      58  56  93 SW6       30.16S
PANAMA CITY NW FAIR      61  58  90 SW12      30.15F
TYNDALL AFB    CLOUDY    62  57  83 W14       30.17F
TYND DRONE APT FAIR      63  59  87 MISG      30.17F
DE FUNIAK SPR  FAIR      55  55 100 SW5       30.16S
EGLIN AFB      PTCLDY    60  57  88 W9        30.15S
DESTIN         CLEAR     63  59  87 VRB7      30.16S
HURLBURT       CLEAR     60  57  87 W9G17     30.15S
CRESTVIEW      CLEAR     55  54  96 SW5       30.17S
PENSACOLA      CLEAR     60  56  86 W14       30.15F
$$

!ALZ063-066-121000
...South Alabama...

CITY           SKY/WX    TMP DP  RH WIND       PRES   REMARKS
DOTHAN         CLOUDY    57  56  96 SW9       30.17S
OZARK CAIRNS   FOG       53  53 100 S3        30.14R VSB<1/4
FT RUCKER HELI FOG       50  49  96 CALM      30.13S VSB 1/4
RUCKER HELI 3  MOCLDY    55  55 100 SW6       30.14F FOG
RUCKER HELI 2  NOT AVBL
FLORALA APT    PTCLDY    55  53  93 SW5       30.16S
ANDALUSIA      LGT RAIN  55  52  88 W3        30.14S FOG
TROY           FOG       46  45  96 CALM      30.12F VSB 1/4
EUFALA         CLOUDY    47  45  93 CALM      30.11F
MOBILE         MOCLDY    57  57 100 SW8       30.17S
$$

!GAZ120>161-121000
...Southwest and South Central Georgia...

CITY           SKY/WX    TMP DP  RH WIND       PRES   REMARKS
THOMASVILLE    CLOUDY    50  50 100 CALM      30.17S
BAINBRIDGE     MOCLDY    57  55  94 CALM      30.16S
MOODY AFB      CLOUDY    54  51  92 S6        30.15S
VALDOSTA       MOCLDY    47  47 100 S3        30.17F FOG
MOULTRIE       CLOUDY    54  52  94 CALM      30.16F
BLAKELY        CLOUDY    61  59  94 SW7       30.14S
ALBANY         CLOUDY    58  54  86 SW7       30.15F
TIFTON         CLOUDY    55  52  89 S6        30.14S
FITZGERALD     CLOUDY    57  52  83 S6        30.15F
CORDELE        CLOUDY    55  46  70 CALM      30.13S
AMERICUS       CLOUDY    48  37  66 CALM      30.13F
HOMERVILLE     CLOUDY    55  55 100 SW5       30.17S
$$

!GMZ750-755-770-775-121000
...Coastal and Buoy Obs...

STATION/POSITION TIME  TEMP    WIND        PRES    VSBY  WAVE
                       AIR SEA DIR/SP/G                  HT/PER
                 (UTC) (F)     (DEG/KT/KT) (MB)    (MI)  (FT/S)
KEATON BEACH     0900   57     220/  6/  7 1022.1S
CEDAR KEY        0900   57     230/  8/ 10 1023.4F
C TOWER          NOT AVBL
APALACHICOLA BUO 0850   67 67  240/ 16/ 19 1023.3F         3/ 6
PANAMA CITY BUOY 0850   67 68  260/ 16/ 19 1023.3F         4/ 5
MOBILE BUOY      NOT AVBL
ORANGE BCH AL BU 0850   64 64  240/ 19/ 23 1020.6F         5/ 6
$$




USA.gov is the U.S. government's official web portal to all federal, state and local government web resources and services.